SCOUT X-4 R/B, 1739

Orbit data source: Space-Track

SCOUT X-4 R/B, 1739 is space debris in LEO originally from a launch on Fri, 19 Nov 1965 UTC launched from the Wallops Island (WLPIS). Debris objects in space refer to the collection of defunct objects orbiting the Earth. Examples of debris include non-operational satellites, rocket bodies, and fragments generated from explosions, collisions, or faulty payload assembly.

Loading next visibility...
Identifier
1739, 1965-093B
Orbit
LEO
Country
Flag of USUS
Related business
Manufacturer
ABL
Mission
Spacecraft
Bus & Motor
ALTAIR, Unknown motor
Mass
33 kg wet, 33 kg dry
Launch date (UTC)
1965-11-19 (60 years ago)
Launch vehicle
Unknown
Launch site
Wallops Island (WLPIS)
Object type
Payload
Rocket body
Debris
Shape & HBR
Unknown
Radar Cross Section
Medium (>0.1 m² and <1 m²)

Expand to show TLE details & history
Last TLE update: 14 hours ago

TLE from 14 hours ago
0 SCOUT X-4 R/B
1 01739U 65093B   25340.63752106  .00001268  00000-0  31543-3 0  9993
2 01739  59.7013 164.4949 0088546  81.1353 279.9704 14.54947266142302
Epoch: 2025-12-06T15:18Z
TLE epoch observation values (Epoch: 2025-12-06T15:18:01.819Z)
Latitude
-0.00001°
Longitude
-140.67508°
Altitude
700.732 km
Speed
7.512 km/s
True Right ascension
10h 57m 58s
True Declination
0° 00' 00"
Sunlit
Object was in daylight at epoch
Visualization orbit readout
Latitude
Unknown
Longitude
Unknown
Altitude
Unknown
Speed
Unknown
Apparent Right ascension
Unknown
Apparent Declination
Unknown
Sunlit
N/A
Visualization observer readout
Local Sidereal Time
03:44:38
Azimuth
Unknown
Elevation
Unknown
Doppler factor
Unknown
Orbital elements
Apogee altitude
771.558 km
Perigee altitude
646.054 km
Semi-major axis
7,086.943 km
Eccentricity
0.00885
Inclination
59.7013°
RAAN
164.4949°
Arg. of periapsis
81.1353°
True anomaly
278.96919°
Mean anomaly
279.9704°
Eccentric anomaly
279.46998°
Mean motion
3.63793 °/min
Orbital period
98.96 mins
BSTAR
0.00031543
Loading maneuver chart data...
Computing Atmospheric mass density...
Loading historical data...
Loading historical data...
Loading historical data...
Loading historical data...
Loading historical data...
Loading historical data...
Loading historical data...
Other satellites on launch #93 in the year 1965 (1965-11-19 UTC)

Documentation

Showing up to 5 results
|